User: anonymous   Login
Location: Columbia
(38.9520°N, 92.3340°W)
Time: 12:38:50
(UTC-06:00)
Language:

SL-08 RB Rocket - Orbit

View from above orbital plane
View from above orbital plane
View from above satellite
View from above satellite

Ground track
Ground track

The orbit data is extracted from the following two-line orbital elements,

1 26387U 00033D   14327.17456045  .00000690  00000-0  12960-3 0  6680
2 26387 098.0887 033.0395 0027920 071.9503 340.8439 14.67528292770401
Epoch (UTC): 23 November 2014 04:11:22
Eccentricity: 0.0027920
inclination: 98.0887°
perigee height: 649 km
apogee height: 688 km
right ascension of ascending node: 33.0395°
argument of perigee: 71.9503°
revolutions per day: 14.67528292
mean anomaly at epoch: 340.8439°
orbit number at epoch: 77040

The dashed part of the orbit path shows where the satellite is in the earth's shadow,  

DLR